Starlink 30566

operational
NORAD ID: 58054 Int'l Des: 2023-158 Owner: SPXS Country: US Constellation: starlink
LEOCIRCULAR

Starlink 30566について

説明を読み込み中...

リアルタイム位置

3D地球を読み込み中...

次回通過

高度履歴

Altitude vs Time

uPlot chart will show altitude changes over time

軌道要素

1 58054U 23158D 25260.01068143 -.00015434 00000-0 -11296-2 0 9999
2 58054 43.0018 254.2181 0000380 182.4088 177.6753 15.02548311107403
Epoch: Sep 17, 2025 • Age: 21 hours

現在のステータス

高度 562.3 km
速度 7.59 km/s
衛星直下点 42.95°N, 28.05°E
打ち上げ日 Oct 13, 2023
運用期間 1.9 years
タイプ internet

技術仕様

分類 Payload
質量 730.00 kg
乾燥質量 700.00 kg
総質量 730.00 kg
長さ 0.30 m
直径 4.10 m
スパン 29.00 m
形状 Box + pan
製造者 SPXS
バスタイプ Starlink V2M
フェーズステータス In Orbit
所有者/国 SPXS/US

大規模コンステレーション

Loading constellations...